Wind_Speed
8 9 10 10 9 9 9 9 9 9 10 10 10 10 11 11 11 11 12 12 12 12 11 10 11 11 11 11 12 13 14 14 14 15 15 16 16 16 16 16 16 16 16 16
9 10 10 9 9 9 9 9 9 9 10 11 10 10 11 12 12 12 13 13 12 12 12 12 12 12 12 12 12 13 14 15 15 16 17 17 17 17 17 17 17 17 17 17
9 10 9 9 9 9 9 9 10 10 10 11 10 10 11 12 12 12 13 13 13 12 12 12 12 12 12 12 13 14 15 16 17 18 18 18 18 17 17 18 17 17 17 17
10 9 9 9 9 9 10 10 10 10 10 11 11 11 11 12 12 12 12 13 13 13 13 13 13 13 13 13 13 14 15 16 18 18 18 17 17 18 18 17 18 18 18 18
10 10 10 10 10 10 10 11 10 10 10 11 11 11 11 11 12 12 13 13 13 13 13 13 13 14 14 15 15 15 16 17 18 18 18 18 18 19 19 19 19 19 19 19
10 10 10 10 10 10 11 10 10 10 11 11 11 11 11 11 11 12 13 13 14 14 14 14 14 14 15 15 16 16 16 17 18 18 18 19 20 20 20 20 20 20 20 20
10 11 11 11 11 11 11 11 11 11 12 12 12 12 12 12 12 12 12 13 14 15 15 14 14 15 15 16 17 17 17 17 18 19 19 20 20 20 20 20 20 21 21 21
11 12 12 12 12 12 12 12 12 13 13 13 13 13 13 12 12 13 13 14 15 15 15 15 15 16 16 16 17 17 17 18 18 19 20 20 21 21 21 21 21 21 22 22
12 13 13 12 13 13 13 13 14 14 14 14 14 14 14 14 14 14 15 15 15 15 16 16 16 17 17 17 18 18 18 18 19 19 20 20 21 21 21 21 22 22 22 22
12 13 13 13 13 13 14 14 14 15 15 15 15 15 16 15 15 16 16 16 16 17 16 17 17 17 17 18 19 19 19 19 20 20 20 21 21 22 22 22 22 22 23 23
13 13 14 14 14 14 14 14 15 16 17 17 17 17 17 17 17 17 17 17 17 18 18 18 18 18 19 19 20 20 20 20 20 21 21 21 22 22 22 22 22 23 23 24
13 14 15 15 15 15 15 15 16 17 17 18 19 18 18 18 18 18 18 18 18 19 20 19 20 20 20 20 21 21 21 21 21 22 22 22 23 23 23 23 24 24 23 23
14 15 16 16 16 16 16 16 17 17 18 19 19 19 19 18 18 19 19 19 19 20 21 20 20 21 21 21 22 22 21 22 23 23 23 23 23 23 24 25 25 25 24 24
15 16 17 17 17 16 17 17 17 17 19 19 20 19 19 19 20 20 20 20 20 21 21 21 21 21 22 22 23 22 22 23 24 24 24 25 25 25 25 26 26 26 25 24
17 17 17 17 17 17 18 18 18 18 19 20 20 20 20 21 21 22 22 22 22 22 23 22 22 23 23 24 24 24 24 24 25 25 25 26 26 26 27 27 27 27 27 26
17 17 17 17 18 19 19 19 19 19 20 21 21 20 20 21 22 22 22 22 23 23 23 23 23 23 24 24 25 25 25 25 25 26 26 26 26 26 27 27 28 28 27 28
18 18 18 18 18 19 20 19 19 20 20 21 21 21 21 21 22 22 22 23 24 25 25 24 24 25 26 26 27 27 27 27 27 27 27 27 27 27 28 29 29 29 29 29
19 19 20 20 20 20 20 20 20 20 21 21 21 21 22 22 22 22 22 23 24 25 26 26 26 27 27 27 28 28 29 28 28 28 28 28 29 29 29 30 30 30 30 31
19 20 21 21 22 21 21 20 20 21 22 21 22 22 23 22 22 22 23 23 24 25 26 27 28 28 28 29 29 30 30 30 30 30 30 30 31 31 30 30 30 31 31 32
21 21 22 22 22 22 21 21 21 22 23 22 23 23 23 23 24 24 24 25 26 27 27 28 29 30 30 31 31 32 32 31 31 31 32 32 32 32 32 32 32 32 32 32
22 22 23 23 23 23 22 21 21 22 23 23 24 24 24 24 25 26 26 26 27 27 28 29 29 30 31 32 32 33 33 33 33 33 33 33 33 34 33 33 33 33 33 33
22 23 23 23 24 24 24 23 23 24 24 24 25 26 26 26 26 26 27 27 27 27 28 29 29 29 30 32 32 32 33 34 35 35 34 34 34 34 34 34 34 34 34 34
23 24 24 24 24 24 24 24 25 25 25 26 26 27 27 27 27 27 27 28 29 29 29 29 30 31 31 31 32 33 33 34 35 35 34 35 35 35 35 35 34 34 34 34
25 25 25 26 25 25 25 25 26 26 26 27 27 27 27 28 28 28 29 29 29 30 30 31 31 31 31 32 32 33 34 34 35 35 35 35 35 35 35 35 35 35 35 35
26 26 26 26 26 26 26 26 26 27 27 28 28 28 28 28 29 29 30 30 30 30 30 31 31 31 32 32 33 33 33 34 34 34 34 35 35 35 35 35 35 35 35 35
26 26 27 27 27 27 27 27 27 28 28 29 29 28 28 28 29 29 30 30 31 31 31 31 31 31 32 32 33 33 33 33 33 34 35 34 35 35 34 34 34 34 35 34
Wind_Direction
242 238 239 243 247 247 251 254 256 258 260 259 258 258 258 256 255 254 251 250 249 250 252 253 256 258 258 257 262 265 267 267 268 270 272 272 272 272 272 272 272 274 272 270
240 241 243 244 247 250 252 253 257 262 263 262 258 257 256 254 253 251 250 249 248 250 254 257 258 260 261 262 263 266 269 271 271 271 272 271 270 271 271 271 273 273 273 273
242 244 243 244 248 252 251 253 259 262 264 264 260 263 261 255 253 252 251 250 249 250 254 261 260 259 261 266 268 271 272 272 272 273 272 272 270 271 272 272 273 274 274 274
243 245 245 247 251 252 254 259 263 264 269 266 264 265 263 259 256 253 254 252 251 252 253 259 260 261 263 267 270 273 276 276 276 274 273 273 273 272 272 273 272 273 274 273
245 247 248 249 254 256 258 265 269 268 268 268 269 268 266 263 258 256 256 255 256 257 259 260 261 263 264 267 272 277 280 281 279 278 276 274 274 274 272 273 273 273 274 275
247 250 252 255 258 260 263 266 269 268 266 268 269 269 267 263 260 259 259 259 258 260 261 262 262 263 264 268 272 276 282 284 280 277 277 276 275 274 273 273 273 274 276 277
247 250 253 257 260 262 265 264 266 267 266 267 266 269 269 267 263 261 260 259 259 262 260 261 262 264 265 269 272 276 281 284 282 278 278 277 275 274 274 274 274 274 276 276
250 252 255 257 259 263 263 261 262 264 266 268 270 271 271 268 266 263 262 262 261 263 262 261 263 266 267 269 272 278 281 284 284 280 278 279 278 276 276 276 275 275 274 275
255 256 258 259 261 263 263 262 262 263 266 268 269 269 272 272 270 268 265 265 264 263 264 264 265 269 270 271 274 278 282 285 285 283 279 278 278 278 278 277 277 277 277 276
259 259 259 261 262 262 261 261 262 264 269 271 271 271 272 273 272 269 267 265 265 265 265 265 267 269 271 274 276 279 282 285 286 284 282 280 279 278 278 278 278 277 278 277
264 263 262 262 262 262 260 260 262 265 268 272 274 273 273 273 272 272 269 267 266 265 264 264 266 268 271 274 276 278 281 284 285 285 282 280 281 280 280 281 280 280 279 279
266 268 266 265 264 263 261 263 265 268 271 274 275 274 274 273 274 273 271 269 268 266 265 265 267 270 272 275 278 278 281 282 285 286 283 280 281 282 282 282 283 283 281 279
269 269 268 267 265 262 262 263 265 268 271 274 275 276 276 273 273 274 273 271 269 268 267 268 268 271 274 276 280 281 281 282 284 284 282 282 282 282 282 282 285 285 282 281
273 272 269 265 265 263 263 263 265 268 272 275 275 275 276 275 273 275 275 273 270 268 267 269 270 273 275 276 278 281 281 283 284 284 282 281 281 282 282 282 284 284 283 282
273 273 271 268 266 264 264 266 268 270 273 275 276 277 276 275 275 275 275 272 270 269 268 269 271 273 273 274 275 278 280 282 283 284 283 281 281 281 282 283 283 283 282 281
272 273 272 271 270 269 268 268 270 272 273 275 277 278 278 276 277 278 276 273 271 269 268 269 271 272 272 272 274 276 279 280 282 284 283 281 281 282 282 283 283 282 281 280
270 272 272 273 274 272 270 271 273 275 274 275 276 277 277 278 277 278 276 274 272 269 268 268 269 270 271 272 273 275 276 277 280 282 282 281 281 282 282 282 282 281 280 280
268 270 271 274 274 274 275 275 275 276 277 277 278 277 278 281 279 277 278 278 275 271 270 268 270 271 272 273 273 274 275 277 278 280 281 282 282 283 283 282 281 280 280 279
270 270 270 271 273 276 277 278 278 279 278 278 278 277 279 280 279 279 280 280 277 275 274 272 271 271 273 273 273 274 275 276 278 280 281 283 283 283 283 283 282 281 279 279
268 268 270 272 273 276 279 280 280 281 279 280 280 278 280 280 280 280 279 278 277 276 276 276 274 273 273 274 273 273 274 276 277 279 281 283 283 282 282 282 282 282 281 280
269 267 267 270 271 274 278 282 282 282 281 280 280 281 281 280 279 279 278 277 276 276 277 277 278 277 277 277 275 274 274 275 277 279 281 282 283 282 281 282 282 281 281 281
271 269 267 270 272 275 278 280 282 284 284 283 281 281 281 280 280 280 279 278 277 277 279 280 280 281 283 282 279 277 275 276 277 279 280 282 283 282 281 281 282 282 282 282
270 271 270 271 273 278 279 280 281 283 284 283 283 283 282 281 280 280 280 278 278 279 279 281 281 281 282 283 282 281 279 278 279 279 280 281 282 282 282 281 282 283 283 283
269 271 272 273 275 278 279 279 280 282 282 283 283 283 283 282 281 281 279 279 279 280 281 282 281 280 282 283 282 282 283 282 281 281 281 281 282 282 282 283 283 283 283 282
269 270 271 273 275 277 278 279 280 281 282 282 282 282 283 283 281 281 280 280 280 280 281 282 282 282 284 285 285 286 286 286 285 284 284 284 284 284 284 284 284 283 283 282
268 269 271 272 274 275 276 278 279 280 281 283 284 283 284 284 284 283 281 281 281 282 282 283 284 286 287 288 288 290 291 289 288 288 287 286 286 284 284 283 283 284 283 281
Height
5835 5837 5838 5839 5840 5841 5841 5842 5842 5842 5842 5842 5842 5843 5842 5842 5843 5843 5843 5844 5845 5845 5846 5846 5847 5847 5847 5847 5847 5847 5847 5847 5846 5846 5845 5844 5844 5843 5842 5841 5841 5840 5840 5839
5833 5834 5836 5836 5837 5838 5838 5839 5840 5840 5839 5839 5839 5840 5839 5839 5840 5840 5840 5841 5842 5842 5843 5843 5844 5844 5844 5844 5844 5844 5844 5843 5843 5842 5841 5840 5840 5839 5838 5837 5836 5836 5835 5835
5830 5833 5833 5833 5834 5835 5835 5836 5837 5837 5836 5836 5837 5837 5836 5836 5836 5837 5837 5838 5838 5839 5840 5840 5840 5840 5841 5841 5841 5841 5840 5839 5838 5837 5837 5836 5835 5834 5834 5833 5832 5831 5831 5830
5828 5829 5830 5831 5831 5832 5833 5833 5833 5834 5834 5834 5834 5834 5833 5833 5833 5833 5834 5834 5835 5836 5836 5837 5837 5837 5837 5838 5837 5837 5836 5835 5834 5833 5832 5831 5831 5830 5829 5829 5828 5827 5826 5825
5825 5826 5826 5828 5829 5830 5830 5830 5830 5830 5830 5830 5830 5831 5831 5830 5830 5830 5830 5831 5831 5832 5833 5833 5833 5834 5834 5834 5833 5833 5832 5831 5830 5829 5828 5827 5826 5826 5825 5824 5823 5823 5822 5821
5822 5823 5824 5825 5826 5826 5827 5827 5827 5827 5827 5828 5828 5828 5827 5827 5827 5827 5827 5827 5828 5828 5829 5830 5830 5830 5830 5830 5830 5829 5828 5827 5826 5825 5823 5823 5822 5821 5820 5819 5818 5817 5817 5816
5819 5820 5821 5821 5822 5823 5823 5824 5824 5824 5824 5824 5824 5824 5824 5823 5823 5823 5823 5823 5824 5824 5825 5825 5826 5826 5826 5826 5825 5825 5824 5823 5821 5820 5819 5818 5817 5815 5814 5814 5813 5812 5811 5810
5815 5817 5817 5818 5819 5819 5819 5821 5822 5822 5821 5821 5820 5820 5820 5819 5819 5819 5819 5819 5819 5820 5820 5821 5821 5821 5821 5821 5821 5820 5819 5818 5817 5815 5814 5813 5812 5810 5809 5808 5807 5806 5805 5805
5812 5813 5814 5814 5815 5816 5816 5816 5817 5817 5817 5817 5816 5816 5816 5815 5815 5815 5815 5815 5815 5815 5815 5816 5816 5816 5816 5816 5816 5815 5814 5813 5812 5810 5809 5807 5806 5805 5804 5802 5801 5800 5800 5799
5808 5809 5809 5810 5811 5811 5812 5812 5812 5813 5812 5813 5813 5812 5812 5810 5810 5810 5809 5809 5810 5810 5810 5811 5811 5811 5811 5811 5811 5810 5809 5808 5806 5805 5803 5802 5801 5799 5798 5797 5796 5794 5793 5792
5804 5805 5805 5806 5806 5806 5807 5808 5808 5808 5808 5808 5808 5810 5807 5806 5805 5805 5804 5804 5804 5805 5805 5806 5806 5806 5806 5806 5805 5804 5803 5802 5801 5799 5798 5796 5795 5794 5792 5790 5789 5788 5786 5785
5800 5800 5801 5801 5802 5802 5802 5803 5803 5803 5803 5802 5802 5805 5801 5800 5799 5799 5799 5799 5799 5799 5799 5800 5800 5800 5800 5800 5800 5799 5798 5797 5795 5793 5792 5790 5789 5787 5786 5784 5782 5781 5779 5778
5795 5796 5796 5797 5798 5797 5797 5797 5797 5797 5797 5796 5796 5799 5795 5794 5794 5793 5793 5793 5793 5793 5794 5794 5794 5794 5794 5794 5793 5792 5791 5790 5789 5787 5786 5784 5783 5781 5779 5778 5776 5774 5772 5771
5791 5791 5792 5793 5792 5791 5792 5792 5792 5791 5791 5791 5791 5791 5790 5788 5788 5787 5787 5787 5787 5787 5787 5788 5788 5788 5787 5787 5787 5786 5785 5783 5782 5781 5779 5777 5776 5774 5773 5771 5769 5767 5765 5764
5785 5786 5786 5786 5786 5786 5786 5786 5786 5785 5785 5785 5784 5784 5783 5782 5782 5781 5780 5780 5780 5780 5781 5781 5781 5781 5781 5780 5780 5779 5778 5777 5775 5774 5772 5770 5769 5767 5765 5763 5761 5760 5758 5756
5780 5781 5781 5781 5780 5780 5780 5780 5780 5779 5778 5778 5777 5777 5776 5775 5775 5774 5774 5773 5773 5773 5774 5774 5774 5774 5774 5773 5773 5772 5771 5770 5768 5767 5765 5763 5761 5759 5758 5756 5753 5752 5750 5748
5775 5775 5775 5775 5775 5774 5774 5775 5774 5773 5772 5771 5771 5771 5770 5769 5768 5768 5767 5766 5766 5766 5766 5766 5766 5766 5766 5766 5765 5764 5763 5762 5760 5759 5757 5755 5753 5751 5749 5747 5745 5743 5742 5740
5770 5770 5769 5769 5769 5768 5771 5768 5768 5767 5766 5765 5764 5763 5763 5762 5761 5760 5760 5759 5758 5758 5758 5759 5758 5758 5758 5757 5756 5755 5754 5753 5752 5750 5749 5747 5745 5743 5740 5738 5736 5735 5733 5731
5764 5764 5764 5763 5762 5762 5763 5762 5761 5760 5759 5759 5758 5757 5756 5755 5754 5754 5753 5752 5751 5751 5750 5750 5750 5749 5749 5748 5747 5746 5745 5744 5743 5742 5740 5738 5736 5734 5732 5729 5727 5725 5723 5722
5758 5758 5758 5757 5756 5756 5757 5756 5754 5754 5753 5752 5751 5750 5749 5748 5748 5748 5746 5745 5744 5743 5742 5741 5740 5739 5739 5738 5737 5737 5735 5734 5733 5732 5730 5728 5726 5724 5722 5720 5717 5715 5713 5712
5751 5751 5751 5750 5750 5749 5750 5749 5748 5748 5747 5745 5743 5742 5742 5741 5740 5739 5738 5737 5736 5735 5734 5732 5731 5730 5729 5728 5727 5726 5725 5724 5723 5721 5720 5718 5715 5713 5711 5709 5707 5705 5703 5702
5744 5744 5744 5744 5743 5745 5743 5742 5742 5741 5739 5737 5736 5735 5734 5733 5732 5731 5730 5729 5728 5726 5725 5723 5722 5721 5719 5717 5716 5715 5714 5713 5712 5710 5709 5707 5704 5702 5700 5698 5696 5694 5693 5691
5737 5738 5737 5738 5738 5737 5735 5735 5734 5732 5731 5730 5728 5727 5726 5725 5724 5723 5721 5720 5719 5718 5716 5715 5713 5712 5710 5708 5706 5705 5703 5702 5700 5699 5697 5695 5693 5691 5689 5687 5685 5684 5682 5680
5730 5729 5729 5729 5729 5728 5727 5726 5726 5725 5723 5722 5721 5719 5718 5717 5716 5714 5713 5712 5710 5709 5707 5706 5704 5702 5701 5699 5697 5695 5693 5691 5689 5687 5686 5684 5682 5680 5678 5676 5674 5672 5670 5669
5722 5721 5721 5721 5721 5720 5719 5719 5718 5716 5715 5714 5712 5711 5709 5708 5707 5706 5704 5703 5701 5700 5698 5696 5695 5693 5691 5689 5687 5685 5682 5680 5678 5677 5674 5672 5670 5668 5666 5664 5662 5660 5659 5657
5713 5713 5713 5713 5713 5712 5711 5710 5709 5708 5707 5705 5704 5702 5701 5699 5698 5696 5695 5693 5692 5690 5689 5687 5685 5683 5681 5679 5677 5674 5672 5670 5668 5666 5664 5661 5659 5657 5655 5653 5651 5649 5647 5645